Washington, PA

12:15 AM EDT on September 20, 2019 (GMT -0400)
Washington County

Weather History for KAFJ - August, 2019

Change the Weather History Date:

Sunday, August 18, 2019

  Actual Average Record
Temperature  
Mean Temperature 76 °F -  
Max Temperature 87 °F 78 °F 87 °F (2002)
Min Temperature 66 °F 58 °F 50 °F (2007)
Cooling Degree Days 12    
Growing Degree Days 26 (Base 50)    
Moisture  
Dew Point 70 °F    
Average Humidity 79    
Maximum Humidity 100    
Minimum Humidity 58    
Precipitation  
Precipitation 0.00 in - - ()
Sea Level Pressure  
Sea Level Pressure 30.01 in    
Wind  
Wind Speed 3 mph (SSW)    
Max Wind Speed 10 mph    
Max Gust Speed -    
Visibility 9 miles    
Events Thunderstorm    
Averages and records for this station are not official NWS values.
T = Trace of Precipitation, MM = Missing Value Source: NWS Daily Summary

Daily Weather History Graph

Daily Weather History Graph

Search for Another Location

Airport or City:

Astronomy

Aug. 18, 2019 Rise Set
Actual Time 6:35 AM EDT 8:14 PM EDT
Civil Twilight 6:06 AM EDT 8:42 PM EDT
Nautical Twilight 5:31 AM EDT 9:17 PM EDT
Astronomical Twilight 4:54 AM EDT 9:54 PM EDT
Moon 10:08 PM EDT (8/18) 9:18 AM EDT (8/18)
Length of Visible Light 14h 36m
Length of Day
13h 39m
Waning Gibbous, 91% of the Moon is Illuminated
Aug 18
Waning Gibbous
Aug 23
Last Quarter
Aug 30
New
Sep 5
First Quarter
Sep 14
Full

Hourly Weather History & Observations

Time (EDT) Temp. Heat Index Dew Point Humidity Pressure Visibility Wind Dir Wind Speed Gust Speed Precip Events Conditions
12:56 AM 70.0 °F - 69.1 °F 97% 30.01 in 9.0 mi SSW 3.5 mph - N/A   Clear
1:56 AM 69.1 °F - 68.0 °F 96% 30.01 in 10.0 mi Calm Calm - N/A   Clear
2:56 AM 68.0 °F - 66.9 °F 96% 30.00 in 4.0 mi Calm Calm - N/A   Clear
3:56 AM 68.0 °F - 66.9 °F 96% 30.00 in 6.0 mi Calm Calm - N/A   Clear
4:56 AM 66.9 °F - 66.0 °F 97% 30.01 in 7.0 mi Calm Calm - N/A   Clear
5:56 AM 66.0 °F - 66.0 °F 100% 30.01 in 5.0 mi Calm Calm - N/A   Clear
6:56 AM 66.0 °F - 66.0 °F 100% 30.02 in 4.0 mi Calm Calm - N/A   Clear
7:56 AM 69.1 °F - 68.0 °F 96% 30.03 in 9.0 mi Calm Calm - N/A   Clear
8:56 AM 75.0 °F - 70.0 °F 84% 30.03 in 10.0 mi Variable 3.5 mph - N/A   Clear
9:56 AM 79.0 °F - 72.0 °F 79% 30.03 in 10.0 mi South 4.6 mph - N/A   Clear
10:56 AM 82.9 °F 87.5 °F 71.1 °F 67% 30.03 in 10.0 mi South 8.1 mph - N/A   Clear
11:56 AM 84.9 °F 90.1 °F 71.1 °F 63% 30.04 in 10.0 mi Variable 4.6 mph - N/A   Partly Cloudy
12:56 PM 86.0 °F 91.5 °F 71.1 °F 61% 30.03 in 10.0 mi SSW 8.1 mph - N/A   Partly Cloudy
1:17 PM 87.8 °F 93.8 °F 71.6 °F 58% 30.04 in 10.0 mi WSW 9.2 mph - N/A Thunderstorm Partly Cloudy
1:56 PM 87.1 °F 92.8 °F 71.1 °F 59% 30.02 in 10.0 mi WSW 10.4 mph - N/A Thunderstorm Mostly Cloudy
2:14 PM 86.0 °F 90.4 °F 69.8 °F 58% 30.04 in 10.0 mi West 8.1 mph - N/A   Mostly Cloudy
2:56 PM 86.0 °F 90.7 °F 70.0 °F 59% 30.00 in 10.0 mi WSW 5.8 mph - N/A Thunderstorm Mostly Cloudy
3:56 PM 82.0 °F 84.9 °F 68.0 °F 62% 30.02 in 10.0 mi SE 10.4 mph - N/A   Clear
4:56 PM 84.0 °F 89.0 °F 71.1 °F 65% 29.99 in 10.0 mi SSE 4.6 mph - N/A   Clear
5:56 PM 84.0 °F 89.6 °F 72.0 °F 67% 29.97 in 10.0 mi South 6.9 mph - N/A   Clear
6:56 PM 82.9 °F 88.0 °F 72.0 °F 69% 29.98 in 10.0 mi South 5.8 mph - N/A   Clear
7:56 PM 80.1 °F 84.2 °F 73.0 °F 79% 29.97 in 10.0 mi Calm Calm - N/A   Clear
8:56 PM 78.1 °F - 72.0 °F 81% 29.96 in 10.0 mi South 3.5 mph - N/A   Clear
9:56 PM 75.0 °F - 72.0 °F 90% 29.96 in 10.0 mi SSW 4.6 mph - N/A   Clear
10:56 PM 73.9 °F - 71.1 °F 91% 29.97 in 10.0 mi SSW 3.5 mph - N/A   Clear
11:56 PM 72.0 °F - 70.0 °F 93% 29.98 in 10.0 mi Calm Calm - N/A   Clear